| time (UTC) | temp F | wind direction | speed MPH | gust MPH | rain 1hr in | rain 24hr in | rain mn in | humidity % | barometer mb |
| 20260508010027 | 55 | 290 | 0.0 | 2.0 | 0.00 | 0.00 | 0.00 | 34 | 1009.8 |
| 20260508005603 | 55 | 281 | 0.0 | 2.0 | 0.00 | 0.00 | 0.00 | 34 | 1009.7 |
| 20260508005041 | 55 | 281 | 0.0 | 0.0 | 0.00 | 0.00 | 0.00 | 34 | 1009.8 |
| 20260508004525 | 56 | 281 | 0.0 | 3.0 | 0.00 | 0.00 | 0.00 | 34 | 1009.8 |
| 20260508004054 | 56 | 281 | 0.0 | 4.0 | 0.00 | 0.00 | 0.00 | 34 | 1009.7 |
| 20260508003544 | 56 | 242 | 0.0 | 4.0 | 0.00 | 0.00 | 0.00 | 34 | 1009.7 |
| 20260508003027 | 56 | 331 | 1.0 | 3.0 | 0.00 | 0.00 | 0.00 | 33 | 1009.8 |
| 20260508002541 | 56 | 334 | 0.0 | 4.0 | 0.00 | 0.00 | 0.00 | 33 | 1009.8 |
| 20260508002008 | 56 | 226 | 0.0 | 3.0 | 0.00 | 0.00 | 0.00 | 33 | 1009.8 |
| 20260508001559 | 57 | 221 | 0.0 | 5.0 | 0.00 | 0.00 | 0.00 | 33 | 1009.8 |
| 20260508001031 | 57 | 275 | 1.0 | 5.0 | 0.00 | 0.00 | 0.00 | 32 | 1009.8 |
| 20260508000553 | 57 | 260 | 1.0 | 3.0 | 0.00 | 0.00 | 0.00 | 32 | 1009.8 |
| 20260508000039 | 57 | 208 | 1.0 | 9.0 | 0.00 | 0.00 | 0.00 | 32 | 1009.8 |
| 20260507235529 | 57 | 324 | 2.0 | 9.0 | 0.00 | 0.00 | 0.00 | 32 | 1009.9 |
| 20260507235014 | 57 | 314 | 1.0 | 4.0 | 0.00 | 0.00 | 0.00 | 32 | 1010.0 |
| 20260507234601 | 57 | 325 | 2.0 | 5.0 | 0.00 | 0.00 | 0.00 | 30 | 1010.0 |
| 20260507234033 | 58 | 314 | 0.0 | 8.0 | 0.00 | 0.00 | 0.00 | 31 | 1010.0 |
| 20260507233601 | 58 | 330 | 3.0 | 8.0 | 0.00 | 0.00 | 0.00 | 30 | 1010.1 |
| 20260507233057 | 58 | 326 | 2.0 | 8.0 | 0.00 | 0.00 | 0.00 | 30 | 1010.2 |
| 20260507232549 | 58 | 324 | 1.0 | 6.0 | 0.00 | 0.00 | 0.00 | 29 | 1010.1 |
| 20260507232022 | 59 | 333 | 2.0 | 8.0 | 0.00 | 0.00 | 0.00 | 32 | 1010.2 |
| 20260507231548 | 59 | 316 | 2.0 | 9.0 | 0.00 | 0.00 | 0.00 | 29 | 1010.2 |
| 20260507231021 | 59 | 322 | 3.0 | 9.0 | 0.00 | 0.00 | 0.00 | 30 | 1010.2 |
| 20260507230535 | 59 | 315 | 2.0 | 8.0 | 0.00 | 0.00 | 0.00 | 29 | 1010.3 |
| 20260507230008 | 59 | 112 | 2.0 | 8.0 | 0.00 | 0.00 | 0.00 | 29 | 1010.3 |
| 20260507225553 | 59 | 326 | 2.0 | 6.0 | 0.00 | 0.00 | 0.00 | 29 | 1010.3 |
| 20260507225003 | 59 | 321 | 1.0 | 5.0 | 0.00 | 0.00 | 0.00 | 29 | 1010.4 |
| 20260507224601 | 59 | 343 | 2.0 | 9.0 | 0.00 | 0.00 | 0.00 | 30 | 1010.4 |
| 20260507224007 | 59 | 98 | 4.0 | 9.0 | 0.00 | 0.00 | 0.00 | 28 | 1010.4 |
| 20260507223539 | 59 | 225 | 1.0 | 5.0 | 0.00 | 0.00 | 0.00 | 30 | 1010.5 |
| 20260507223033 | 59 | 342 | 2.0 | 6.0 | 0.00 | 0.00 | 0.00 | 28 | 1010.5 |
| 20260507222511 | 59 | 286 | 2.0 | 9.0 | 0.00 | 0.00 | 0.00 | 29 | 1010.5 |
| 20260507222052 | 60 | 160 | 1.0 | 5.0 | 0.00 | 0.00 | 0.00 | 31 | 1010.4 |
| 20260507221502 | 59 | 280 | 1.0 | 5.0 | 0.00 | 0.00 | 0.00 | 32 | 1010.5 |
| 20260507221024 | 59 | 257 | 1.0 | 6.0 | 0.00 | 0.00 | 0.00 | 32 | 1010.4 |
| 20260507220541 | 59 | 74 | 2.0 | 12.0 | 0.00 | 0.00 | 0.00 | 30 | 1010.5 |
| 20260507220015 | 59 | 317 | 5.0 | 12.0 | 0.00 | 0.00 | 0.00 | 30 | 1010.6 |
| 20260507215535 | 59 | 345 | 3.0 | 11.0 | 0.00 | 0.00 | 0.00 | 29 | 1010.5 |
| 20260507215053 | 59 | 344 | 4.0 | 11.0 | 0.00 | 0.00 | 0.00 | 29 | 1010.7 |
| 20260507214524 | 58 | 310 | 2.0 | 9.0 | 0.00 | 0.00 | 0.00 | 29 | 1010.7 |
| 20260507214109 | 59 | 317 | 2.0 | 8.0 | 0.00 | 0.00 | 0.00 | 30 | 1010.7 |
| 20260507213519 | 59 | 323 | 2.0 | 11.0 | 0.00 | 0.00 | 0.00 | 29 | 1010.7 |
| 20260507213100 | 59 | 326 | 3.0 | 11.0 | 0.00 | 0.00 | 0.00 | 29 | 1010.7 |
| 20260507212542 | 59 | 244 | 0.0 | 6.0 | 0.00 | 0.00 | 0.00 | 31 | 1010.8 |
| 20260507212011 | 59 | 315 | 2.0 | 9.0 | 0.00 | 0.00 | 0.00 | 30 | 1010.8 |
| 20260507211531 | 59 | 322 | 2.0 | 12.0 | 0.00 | 0.00 | 0.00 | 30 | 1010.9 |
| 20260507211004 | 59 | 46 | 2.0 | 12.0 | 0.00 | 0.00 | 0.00 | 31 | 1010.9 |
| 20260507210527 | 58 | 311 | 2.0 | 9.0 | 0.00 | 0.00 | 0.00 | 30 | 1010.9 |
| 20260507210047 | 58 | 336 | 4.0 | 8.0 | 0.00 | 0.00 | 0.00 | 29 | 1011.1 |
| 20260507205605 | 58 | 293 | 3.0 | 14.0 | 0.00 | 0.00 | 0.00 | 30 | 1011.1 |
| 20260507205032 | 58 | 332 | 3.0 | 10.0 | 0.00 | 0.00 | 0.00 | 30 | 1011.0 |
| 20260507204606 | 58 | 9 | 3.0 | 10.0 | 0.00 | 0.00 | 0.00 | 28 | 1011.3 |
| 20260507204035 | 57 | 28 | 2.0 | 13.0 | 0.00 | 0.00 | 0.00 | 31 | 1011.4 |
| 20260507203507 | 57 | 312 | 6.0 | 13.0 | 0.00 | 0.00 | 0.00 | 28 | 1011.4 |
| 20260507203051 | 57 | 319 | 3.0 | 11.0 | 0.00 | 0.00 | 0.00 | 30 | 1011.4 |
| 20260507202501 | 57 | 330 | 4.0 | 11.0 | 0.00 | 0.00 | 0.00 | 31 | 1011.5 |
| 20260507202027 | 58 | 97 | 3.0 | 8.0 | 0.00 | 0.00 | 0.00 | 31 | 1011.5 |
| 20260507201613 | 58 | 182 | 1.0 | 8.0 | 0.00 | 0.00 | 0.00 | 33 | 1011.6 |
| 20260507201015 | 57 | 349 | 2.0 | 8.0 | 0.00 | 0.00 | 0.00 | 31 | 1011.6 |
| 20260507200535 | 57 | 81 | 1.0 | 8.0 | 0.00 | 0.00 | 0.00 | 28 | 1011.7 |
| 20260507200007 | 57 | 321 | 1.0 | 8.0 | 0.00 | 0.00 | 0.00 | 34 | 1011.8 |
| 20260507195526 | 57 | 306 | 3.0 | 6.0 | 0.00 | 0.00 | 0.00 | 32 | 1011.8 |
| 20260507195109 | 56 | 319 | 2.0 | 9.0 | 0.00 | 0.00 | 0.00 | 36 | 1011.8 |
| 20260507194548 | 56 | 324 | 4.0 | 10.0 | 0.00 | 0.00 | 0.00 | 31 | 1011.9 |
| 20260507194040 | 56 | 311 | 3.0 | 10.0 | 0.00 | 0.00 | 0.00 | 31 | 1012.1 |
| 20260507193505 | 56 | 302 | 2.0 | 4.0 | 0.00 | 0.00 | 0.00 | 34 | 1011.9 |
| 20260507193028 | 55 | 155 | 0.0 | 12.0 | 0.00 | 0.00 | 0.00 | 37 | 1012.0 |
| 20260507192544 | 55 | 243 | 2.0 | 12.0 | 0.00 | 0.00 | 0.00 | 31 | 1012.1 |
| 20260507192106 | 56 | 308 | 3.0 | 8.0 | 0.00 | 0.00 | 0.00 | 31 | 1012.1 |
| 20260507191521 | 57 | 305 | 1.0 | 7.0 | 0.00 | 0.00 | 0.00 | 33 | 1012.2 |
| 20260507191100 | 57 | 86 | 1.0 | 6.0 | 0.00 | 0.00 | 0.00 | 34 | 1012.2 |
| 20260507190510 | 56 | 221 | 2.0 | 8.0 | 0.00 | 0.00 | 0.00 | 33 | 1012.2 |
| 20260507190055 | 56 | 315 | 3.0 | 8.0 | 0.00 | 0.00 | 0.00 | 32 | 1012.2 |
| 20260507185502 | 55 | 133 | 2.0 | 8.0 | 0.00 | 0.00 | 0.00 | 33 | 1012.2 |
| 20260507185044 | 55 | 112 | 2.0 | 8.0 | 0.00 | 0.00 | 0.00 | 39 | 1012.2 |
| 20260507184519 | 54 | 308 | 1.0 | 11.0 | 0.00 | 0.00 | 0.00 | 35 | 1012.3 |
| 20260507184043 | 54 | 295 | 2.0 | 8.0 | 0.00 | 0.00 | 0.00 | 33 | 1012.3 |
| 20260507183510 | 55 | 321 | 2.0 | 11.0 | 0.00 | 0.00 | 0.00 | 37 | 1012.5 |
| 20260507183053 | 55 | 349 | 5.0 | 11.0 | 0.00 | 0.00 | 0.00 | 34 | 1012.4 |
| 20260507182527 | 54 | 167 | 1.0 | 13.0 | 0.00 | 0.00 | 0.00 | 35 | 1012.4 |
| 20260507182047 | 54 | 321 | 1.0 | 13.0 | 0.00 | 0.00 | 0.00 | 31 | 1012.5 |
| 20260507181606 | 55 | 329 | 2.0 | 7.0 | 0.00 | 0.00 | 0.00 | 38 | 1012.5 |
| 20260507181042 | 55 | 327 | 2.0 | 7.0 | 0.00 | 0.00 | 0.00 | 37 | 1012.6 |
| 20260507180511 | 54 | 148 | 1.0 | 8.0 | 0.00 | 0.00 | 0.00 | 37 | 1012.5 |
| 20260507180033 | 54 | 142 | 3.0 | 8.0 | 0.00 | 0.00 | 0.00 | 34 | 1012.6 |
| 20260507175551 | 54 | 319 | 2.0 | 13.0 | 0.00 | 0.00 | 0.00 | 36 | 1012.6 |
| 20260507175021 | 54 | 331 | 3.0 | 9.0 | 0.00 | 0.00 | 0.00 | 33 | 1012.7 |
| 20260507174542 | 54 | 173 | 4.0 | 10.0 | 0.00 | 0.00 | 0.00 | 34 | 1012.7 |
| 20260507174100 | 55 | 317 | 3.0 | 10.0 | 0.00 | 0.00 | 0.00 | 35 | 1012.7 |
| 20260507173510 | 54 | 284 | 3.0 | 8.0 | 0.00 | 0.00 | 0.00 | 33 | 1012.7 |
| 20260507173034 | 55 | 185 | 2.0 | 8.0 | 0.00 | 0.00 | 0.00 | 35 | 1012.7 |
| 20260507172505 | 54 | 64 | 2.0 | 8.0 | 0.00 | 0.00 | 0.00 | 34 | 1012.9 |
| 20260507172024 | 54 | 51 | 2.0 | 8.0 | 0.00 | 0.00 | 0.00 | 33 | 1012.9 |
| 20260507171545 | 54 | 161 | 3.0 | 8.0 | 0.00 | 0.00 | 0.00 | 34 | 1013.0 |
| 20260507171015 | 54 | 329 | 1.0 | 6.0 | 0.00 | 0.00 | 0.00 | 35 | 1013.0 |
| 20260507170559 | 53 | 137 | 2.0 | 8.0 | 0.00 | 0.00 | 0.00 | 36 | 1013.0 |
| 20260507170009 | 53 | 165 | 2.0 | 9.0 | 0.00 | 0.00 | 0.00 | 33 | 1013.1 |
| 20260507165531 | 53 | 321 | 3.0 | 9.0 | 0.00 | 0.00 | 0.00 | 34 | 1013.1 |
| 20260507165053 | 53 | 129 | 1.0 | 5.0 | 0.00 | 0.00 | 0.00 | 40 | 1013.1 |
| 20260507164610 | 53 | 322 | 2.0 | 5.0 | 0.00 | 0.00 | 0.00 | 39 | 1013.2 |
| 20260507164027 | 53 | 300 | 2.0 | 4.0 | 0.00 | 0.00 | 0.00 | 42 | 1013.2 |
| 20260507163511 | 53 | 251 | 1.0 | 7.0 | 0.00 | 0.00 | 0.00 | 43 | 1013.4 |
| 20260507163042 | 52 | 163 | 1.0 | 7.0 | 0.00 | 0.00 | 0.00 | 44 | 1013.4 |
| 20260507162609 | 52 | 66 | 1.0 | 6.0 | 0.00 | 0.00 | 0.00 | 40 | 1013.4 |
| 20260507162042 | 52 | 78 | 1.0 | 8.0 | 0.00 | 0.00 | 0.00 | 42 | 1013.5 |
| 20260507161604 | 51 | 108 | 2.0 | 8.0 | 0.00 | 0.00 | 0.00 | 44 | 1013.4 |
| 20260507161036 | 52 | 288 | 1.0 | 4.0 | 0.00 | 0.00 | 0.00 | 43 | 1013.5 |
| 20260507160506 | 51 | 338 | 2.0 | 5.0 | 0.00 | 0.00 | 0.00 | 41 | 1013.5 |
| 20260507160040 | 51 | 321 | 1.0 | 8.0 | 0.00 | 0.00 | 0.00 | 40 | 1013.5 |
| 20260507155512 | 51 | 340 | 3.0 | 9.0 | 0.00 | 0.00 | 0.00 | 40 | 1013.5 |
| 20260507155044 | 51 | 330 | 3.0 | 6.0 | 0.00 | 0.00 | 0.00 | 42 | 1013.5 |
| 20260507154535 | 50 | 325 | 1.0 | 5.0 | 0.00 | 0.00 | 0.00 | 43 | 1013.5 |
| 20260507154004 | 49 | 300 | 1.0 | 5.0 | 0.00 | 0.00 | 0.00 | 42 | 1013.6 |
| 20260507153540 | 49 | 284 | 1.0 | 8.0 | 0.00 | 0.00 | 0.00 | 41 | 1013.6 |
| 20260507153011 | 49 | 286 | 2.0 | 8.0 | 0.00 | 0.00 | 0.00 | 42 | 1013.6 |
| 20260507152535 | 49 | 319 | 1.0 | 5.0 | 0.00 | 0.00 | 0.00 | 44 | 1013.7 |
| 20260507152100 | 48 | 320 | 1.0 | 8.0 | 0.00 | 0.00 | 0.00 | 43 | 1013.7 |
| 20260507151543 | 49 | 331 | 2.0 | 8.0 | 0.00 | 0.00 | 0.00 | 43 | 1013.7 |
| 20260507151004 | 49 | 308 | 1.0 | 5.0 | 0.00 | 0.00 | 0.00 | 46 | 1013.6 |
| 20260507150551 | 49 | 213 | 1.0 | 4.0 | 0.00 | 0.00 | 0.00 | 43 | 1013.6 |
| 20260507150021 | 48 | 319 | 1.0 | 3.0 | 0.00 | 0.00 | 0.00 | 47 | 1013.7 |
| 20260507145600 | 48 | 182 | 1.0 | 3.0 | 0.00 | 0.00 | 0.00 | 47 | 1013.7 |
| 20260507145056 | 48 | 93 | 1.0 | 3.0 | 0.00 | 0.00 | 0.00 | 47 | 1013.7 |
| 20260507144543 | 47 | 319 | 0.0 | 5.0 | 0.00 | 0.00 | 0.00 | 49 | 1013.8 |
| 20260507144013 | 47 | 333 | 2.0 | 5.0 | 0.00 | 0.00 | 0.00 | 51 | 1013.7 |
| 20260507143600 | 46 | 313 | 1.0 | 4.0 | 0.00 | 0.00 | 0.00 | 50 | 1013.8 |
| 20260507143015 | 46 | 299 | 1.0 | 5.0 | 0.00 | 0.00 | 0.00 | 51 | 1013.8 |
| 20260507142502 | 46 | 324 | 1.0 | 5.0 | 0.00 | 0.00 | 0.00 | 52 | 1013.9 |
| 20260507142050 | 46 | 328 | 1.0 | 5.0 | 0.00 | 0.00 | 0.00 | 50 | 1014.0 |
| 20260507141505 | 46 | 304 | 2.0 | 6.0 | 0.00 | 0.00 | 0.00 | 51 | 1014.0 |
| 20260507141051 | 45 | 338 | 1.0 | 3.0 | 0.00 | 0.00 | 0.00 | 54 | 1014.0 |
| 20260507140505 | 45 | 273 | 1.0 | 5.0 | 0.00 | 0.00 | 0.00 | 53 | 1014.0 |
| 20260507140056 | 45 | 315 | 3.0 | 5.0 | 0.00 | 0.00 | 0.00 | 56 | 1014.1 |
| 20260507135525 | 45 | 338 | 2.0 | 5.0 | 0.00 | 0.00 | 0.00 | 56 | 1014.1 |
| 20260507135056 | 44 | 324 | 1.0 | 5.0 | 0.00 | 0.00 | 0.00 | 59 | 1013.9 |
| 20260507134527 | 44 | 326 | 2.0 | 5.0 | 0.00 | 0.00 | 0.00 | 59 | 1014.0 |
| 20260507134023 | 44 | 321 | 0.0 | 5.0 | 0.00 | 0.00 | 0.00 | 62 | 1014.0 |
| 20260507133549 | 44 | 325 | 2.0 | 5.0 | 0.00 | 0.00 | 0.00 | 62 | 1014.1 |
| 20260507133025 | 43 | 323 | 2.0 | 4.0 | 0.00 | 0.00 | 0.00 | 62 | 1014.1 |
| 20260507132511 | 43 | 290 | 1.0 | 3.0 | 0.00 | 0.00 | 0.00 | 64 | 1014.1 |
| 20260507132003 | 43 | 224 | 1.0 | 3.0 | 0.00 | 0.00 | 0.00 | 64 | 1014.2 |
| 20260507131557 | 42 | 277 | 1.0 | 3.0 | 0.00 | 0.00 | 0.00 | 65 | 1014.2 |
| 20260507131042 | 42 | 273 | 0.0 | 3.0 | 0.00 | 0.00 | 0.00 | 72 | 1014.2 |
| 20260507130536 | 41 | 273 | 0.0 | 2.0 | 0.00 | 0.00 | 0.00 | 75 | 1014.2 |
| 20260507130024 | 40 | 273 | 0.0 | 1.0 | 0.00 | 0.00 | 0.00 | 81 | 1014.2 |
| 20260507125502 | 38 | 273 | 0.0 | 2.0 | 0.00 | 0.00 | 0.00 | 83 | 1014.2 |
| 20260507125045 | 37 | 273 | 0.0 | 1.0 | 0.00 | 0.00 | 0.00 | 84 | 1014.2 |
| 20260507124610 | 37 | 360 | 0.0 | 0.0 | 0.00 | 0.00 | 0.00 | 85 | 1014.2 |
| 20260507124033 | 36 | 360 | 0.0 | 0.0 | 0.00 | 0.00 | 0.00 | 87 | 1014.3 |
| 20260507123604 | 35 | 360 | 0.0 | 0.0 | 0.00 | 0.00 | 0.00 | 88 | 1014.3 |
| 20260507123042 | 34 | 360 | 0.0 | 2.0 | 0.00 | 0.00 | 0.00 | 89 | 1014.4 |
| 20260507122516 | 34 | 360 | 0.0 | 2.0 | 0.00 | 0.00 | 0.00 | 90 | 1014.3 |
| 20260507122051 | 33 | 360 | 0.0 | 2.0 | 0.00 | 0.00 | 0.00 | 91 | 1014.4 |
| 20260507121524 | 32 | 360 | 0.0 | 1.0 | 0.00 | 0.00 | 0.00 | 93 | 1014.4 |
| 20260507121044 | 32 | 360 | 0.0 | 0.0 | 0.00 | 0.00 | 0.00 | 93 | 1014.4 |
| 20260507120521 | 31 | 360 | 0.0 | 0.0 | 0.00 | 0.00 | 0.00 | 94 | 1014.4 |
| 20260507120100 | 30 | 360 | 0.0 | 0.0 | 0.00 | 0.00 | 0.00 | 93 | 1014.4 |
| 20260507115534 | 29 | 360 | 0.0 | 0.0 | 0.00 | 0.00 | 0.00 | 93 | 1014.4 |
| 20260507115059 | 29 | 360 | 0.0 | 0.0 | 0.00 | 0.00 | 0.00 | 93 | 1014.3 |
| 20260507114534 | 29 | 360 | 0.0 | 0.0 | 0.00 | 0.00 | 0.00 | 93 | 1014.3 |
| 20260507114114 | 28 | 360 | 0.0 | 0.0 | 0.00 | 0.00 | 0.00 | 93 | 1014.3 |
| 20260507113546 | 28 | 360 | 0.0 | 0.0 | 0.00 | 0.00 | 0.00 | 92 | 1014.3 |
| 20260507113020 | 28 | 360 | 0.0 | 0.0 | 0.00 | 0.00 | 0.00 | 92 | 1014.3 |
| 20260507112552 | 28 | 360 | 0.0 | 0.0 | 0.00 | 0.00 | 0.00 | 92 | 1014.3 |
| 20260507112030 | 28 | 360 | 0.0 | 0.0 | 0.00 | 0.00 | 0.00 | 92 | 1014.3 |
| 20260507111510 | 28 | 360 | 0.0 | 0.0 | 0.00 | 0.00 | 0.00 | 92 | 1014.3 |
| 20260507111027 | 28 | 360 | 0.0 | 0.0 | 0.00 | 0.00 | 0.00 | 92 | 1014.3 |
| 20260507110548 | 28 | 360 | 0.0 | 0.0 | 0.00 | 0.00 | 0.00 | 92 | 1014.3 |
| 20260507110010 | 28 | 360 | 0.0 | 0.0 | 0.00 | 0.00 | 0.00 | 92 | 1014.3 |
| 20260507105543 | 28 | 360 | 0.0 | 0.0 | 0.00 | 0.00 | 0.00 | 91 | 1014.2 |
| 20260507105102 | 28 | 360 | 0.0 | 0.0 | 0.00 | 0.00 | 0.00 | 91 | 1014.3 |
| 20260507104525 | 28 | 360 | 0.0 | 0.0 | 0.00 | 0.00 | 0.00 | 92 | 1014.3 |
| 20260507104056 | 28 | 360 | 0.0 | 0.0 | 0.00 | 0.00 | 0.00 | 92 | 1014.3 |
| 20260507103527 | 28 | 360 | 0.0 | 0.0 | 0.00 | 0.00 | 0.00 | 91 | 1014.3 |
| 20260507103048 | 29 | 360 | 0.0 | 0.0 | 0.00 | 0.00 | 0.00 | 91 | 1014.2 |
| 20260507102537 | 29 | 360 | 0.0 | 0.0 | 0.00 | 0.00 | 0.00 | 91 | 1014.2 |
| 20260507102107 | 29 | 360 | 0.0 | 0.0 | 0.00 | 0.00 | 0.00 | 91 | 1014.2 |
| 20260507101524 | 29 | 360 | 0.0 | 0.0 | 0.00 | 0.00 | 0.00 | 91 | 1014.3 |
| 20260507101050 | 29 | 360 | 0.0 | 0.0 | 0.00 | 0.00 | 0.00 | 91 | 1014.3 |
| 20260507100510 | 29 | 360 | 0.0 | 0.0 | 0.00 | 0.00 | 0.00 | 91 | 1014.3 |
| 20260507100034 | 29 | 360 | 0.0 | 0.0 | 0.00 | 0.00 | 0.00 | 91 | 1014.3 |
| 20260507095550 | 29 | 360 | 0.0 | 0.0 | 0.00 | 0.00 | 0.00 | 91 | 1014.3 |
| 20260507095110 | 29 | 360 | 0.0 | 0.0 | 0.00 | 0.00 | 0.00 | 91 | 1014.3 |
| 20260507094555 | 29 | 360 | 0.0 | 0.0 | 0.00 | 0.00 | 0.00 | 91 | 1014.3 |
| 20260507094104 | 29 | 360 | 0.0 | 0.0 | 0.00 | 0.00 | 0.00 | 91 | 1014.3 |
| 20260507093513 | 29 | 360 | 0.0 | 0.0 | 0.00 | 0.00 | 0.00 | 90 | 1014.3 |
| 20260507093033 | 29 | 360 | 0.0 | 0.0 | 0.00 | 0.00 | 0.00 | 90 | 1014.3 |
| 20260507092552 | 29 | 360 | 0.0 | 0.0 | 0.00 | 0.00 | 0.00 | 90 | 1014.3 |
| 20260507092023 | 30 | 360 | 0.0 | 0.0 | 0.00 | 0.00 | 0.00 | 90 | 1014.3 |
| 20260507091558 | 30 | 360 | 0.0 | 0.0 | 0.00 | 0.00 | 0.00 | 90 | 1014.4 |
| 20260507091104 | 30 | 360 | 0.0 | 0.0 | 0.00 | 0.00 | 0.00 | 90 | 1014.3 |
| 20260507090514 | 30 | 360 | 0.0 | 0.0 | 0.00 | 0.00 | 0.00 | 90 | 1014.3 |
| 20260507090038 | 30 | 360 | 0.0 | 0.0 | 0.00 | 0.00 | 0.00 | 90 | 1014.4 |
| 20260507085555 | 30 | 360 | 0.0 | 0.0 | 0.00 | 0.00 | 0.00 | 90 | 1014.4 |
| 20260507085027 | 30 | 360 | 0.0 | 0.0 | 0.00 | 0.00 | 0.00 | 89 | 1014.4 |
| 20260507084501 | 30 | 360 | 0.0 | 0.0 | 0.00 | 0.00 | 0.00 | 89 | 1014.3 |
| 20260507084037 | 30 | 360 | 0.0 | 0.0 | 0.00 | 0.00 | 0.00 | 89 | 1014.3 |
| 20260507083520 | 30 | 360 | 0.0 | 0.0 | 0.00 | 0.00 | 0.00 | 89 | 1014.3 |
| 20260507083046 | 31 | 360 | 0.0 | 0.0 | 0.00 | 0.00 | 0.00 | 89 | 1014.4 |
| 20260507082520 | 31 | 360 | 0.0 | 0.0 | 0.00 | 0.00 | 0.00 | 89 | 1014.4 |
| 20260507082047 | 31 | 360 | 0.0 | 0.0 | 0.00 | 0.00 | 0.00 | 89 | 1014.3 |
| 20260507081608 | 31 | 360 | 0.0 | 0.0 | 0.00 | 0.00 | 0.00 | 89 | 1014.4 |
| 20260507081018 | 31 | 360 | 0.0 | 0.0 | 0.00 | 0.00 | 0.00 | 88 | 1014.4 |
| 20260507080538 | 31 | 360 | 0.0 | 0.0 | 0.00 | 0.00 | 0.00 | 88 | 1014.4 |
| 20260507080058 | 31 | 360 | 0.0 | 0.0 | 0.00 | 0.00 | 0.00 | 88 | 1014.4 |
| 20260507075508 | 31 | 360 | 0.0 | 0.0 | 0.00 | 0.00 | 0.00 | 87 | 1014.3 |
| 20260507075049 | 31 | 360 | 0.0 | 0.0 | 0.00 | 0.00 | 0.00 | 87 | 1014.4 |
| 20260507074609 | 31 | 360 | 0.0 | 0.0 | 0.00 | 0.00 | 0.00 | 86 | 1014.4 |
| 20260507074037 | 32 | 360 | 0.0 | 0.0 | 0.00 | 0.00 | 0.00 | 86 | 1014.5 |
| 20260507073558 | 32 | 360 | 0.0 | 0.0 | 0.00 | 0.00 | 0.00 | 85 | 1014.6 |
| 20260507073008 | 32 | 360 | 0.0 | 0.0 | 0.00 | 0.00 | 0.00 | 85 | 1014.6 |
| 20260507072552 | 32 | 360 | 0.0 | 0.0 | 0.00 | 0.00 | 0.00 | 85 | 1014.6 |
| 20260507072004 | 33 | 360 | 0.0 | 0.0 | 0.00 | 0.00 | 0.00 | 84 | 1014.6 |
| 20260507071522 | 33 | 360 | 0.0 | 0.0 | 0.00 | 0.00 | 0.00 | 84 | 1014.7 |
| 20260507071042 | 33 | 360 | 0.0 | 0.0 | 0.00 | 0.00 | 0.00 | 83 | 1014.7 |
| 20260507070509 | 33 | 360 | 0.0 | 0.0 | 0.00 | 0.00 | 0.00 | 83 | 1014.8 |
| 20260507070159 | 33 | 360 | 0.0 | 0.0 | 0.00 | 0.00 | 0.00 | 83 | 1014.9 |
| 20260507065504 | 34 | 360 | 0.0 | 0.0 | 0.00 | 0.00 | 0.00 | 83 | 1014.9 |
| 20260507065023 | 34 | 360 | 0.0 | 0.0 | 0.00 | 0.00 | 0.00 | 82 | 1014.9 |
| 20260507064548 | 34 | 360 | 0.0 | 0.0 | 0.00 | 0.00 | 0.00 | 82 | 1014.9 |
| 20260507064105 | 35 | 360 | 0.0 | 0.0 | 0.00 | 0.00 | 0.00 | 82 | 1015.0 |
| 20260507063512 | 35 | 360 | 0.0 | 0.0 | 0.00 | 0.00 | 0.00 | 81 | 1015.0 |
| 20260507063032 | 35 | 360 | 0.0 | 0.0 | 0.00 | 0.00 | 0.00 | 81 | 1015.0 |
| 20260507062558 | 36 | 360 | 0.0 | 0.0 | 0.00 | 0.00 | 0.00 | 80 | 1015.1 |
| 20260507062028 | 36 | 360 | 0.0 | 0.0 | 0.00 | 0.00 | 0.00 | 80 | 1015.1 |
| 20260507061548 | 37 | 360 | 0.0 | 0.0 | 0.00 | 0.00 | 0.00 | 79 | 1015.1 |
| 20260507061105 | 37 | 360 | 0.0 | 0.0 | 0.00 | 0.00 | 0.00 | 79 | 1015.2 |
| 20260507060540 | 37 | 360 | 0.0 | 0.0 | 0.00 | 0.00 | 0.00 | 78 | 1015.2 |
| 20260507060025 | 38 | 360 | 0.0 | 0.0 | 0.00 | 0.00 | 0.00 | 78 | 1015.3 |
| 20260507055534 | 38 | 360 | 0.0 | 0.0 | 0.00 | 0.00 | 0.00 | 78 | 1015.2 |
| 20260507055007 | 38 | 360 | 0.0 | 0.0 | 0.00 | 0.00 | 0.00 | 77 | 1015.2 |
| 20260507054550 | 38 | 360 | 0.0 | 0.0 | 0.00 | 0.00 | 0.00 | 77 | 1015.2 |
| 20260507054002 | 38 | 360 | 0.0 | 0.0 | 0.00 | 0.00 | 0.00 | 76 | 1015.2 |
| 20260507053526 | 38 | 360 | 0.0 | 0.0 | 0.00 | 0.00 | 0.00 | 76 | 1015.3 |
| 20260507053054 | 38 | 360 | 0.0 | 0.0 | 0.00 | 0.00 | 0.00 | 76 | 1015.3 |
| 20260507052519 | 38 | 360 | 0.0 | 0.0 | 0.00 | 0.00 | 0.00 | 75 | 1015.4 |
| 20260507052107 | 38 | 360 | 0.0 | 0.0 | 0.00 | 0.00 | 0.00 | 76 | 1015.3 |
| 20260507051516 | 38 | 360 | 0.0 | 0.0 | 0.00 | 0.00 | 0.00 | 76 | 1015.3 |
| 20260507051058 | 39 | 360 | 0.0 | 0.0 | 0.00 | 0.00 | 0.00 | 76 | 1015.4 |
| 20260507050512 | 39 | 360 | 0.0 | 0.0 | 0.00 | 0.00 | 0.00 | 75 | 1015.4 |
| 20260507050016 | 39 | 360 | 0.0 | 0.0 | 0.00 | 0.00 | 0.00 | 75 | 1015.4 |
| 20260507045531 | 39 | 360 | 0.0 | 0.0 | 0.00 | 0.00 | 0.00 | 74 | 1015.4 |
| 20260507045051 | 39 | 360 | 0.0 | 0.0 | 0.00 | 0.00 | 0.00 | 74 | 1015.4 |
| 20260507044541 | 39 | 360 | 0.0 | 0.0 | 0.00 | 0.00 | 0.00 | 74 | 1015.4 |
| 20260507044048 | 39 | 360 | 0.0 | 0.0 | 0.00 | 0.00 | 0.00 | 74 | 1015.5 |
| 20260507043503 | 39 | 360 | 0.0 | 0.0 | 0.00 | 0.00 | 0.00 | 73 | 1015.6 |
| 20260507043024 | 39 | 360 | 0.0 | 0.0 | 0.00 | 0.00 | 0.00 | 73 | 1015.6 |
| 20260507042610 | 39 | 360 | 0.0 | 0.0 | 0.00 | 0.00 | 0.00 | 73 | 1015.7 |
| 20260507042038 | 39 | 360 | 0.0 | 0.0 | 0.00 | 0.00 | 0.00 | 73 | 1015.7 |
| 20260507041502 | 39 | 360 | 0.0 | 0.0 | 0.00 | 0.00 | 0.00 | 73 | 1015.7 |
| 20260507041025 | 39 | 360 | 0.0 | 0.0 | 0.00 | 0.00 | 0.00 | 72 | 1015.8 |
| 20260507040554 | 39 | 360 | 0.0 | 0.0 | 0.00 | 0.00 | 0.00 | 72 | 1015.7 |
| 20260507040002 | 39 | 360 | 0.0 | 0.0 | 0.00 | 0.00 | 0.00 | 72 | 1015.7 |
| 20260507035523 | 39 | 360 | 0.0 | 0.0 | 0.00 | 0.00 | 0.00 | 71 | 1015.8 |
| 20260507035050 | 39 | 360 | 0.0 | 0.0 | 0.00 | 0.00 | 0.00 | 70 | 1015.8 |
| 20260507034517 | 39 | 360 | 0.0 | 0.0 | 0.00 | 0.00 | 0.00 | 70 | 1015.8 |
| 20260507034049 | 39 | 360 | 0.0 | 0.0 | 0.00 | 0.00 | 0.00 | 70 | 1015.8 |
| 20260507033505 | 39 | 360 | 0.0 | 0.0 | 0.00 | 0.00 | 0.00 | 69 | 1015.8 |
| 20260507033028 | 39 | 360 | 0.0 | 0.0 | 0.00 | 0.00 | 0.00 | 69 | 1015.9 |
| 20260507032559 | 39 | 360 | 0.0 | 0.0 | 0.00 | 0.00 | 0.00 | 69 | 1015.9 |
| 20260507032051 | 39 | 360 | 0.0 | 0.0 | 0.00 | 0.00 | 0.00 | 68 | 1015.9 |
| 20260507031537 | 39 | 360 | 0.0 | 0.0 | 0.00 | 0.00 | 0.00 | 69 | 1016.0 |
| 20260507031006 | 39 | 360 | 0.0 | 0.0 | 0.00 | 0.00 | 0.00 | 68 | 1016.0 |
| 20260507030532 | 39 | 360 | 0.0 | 0.0 | 0.00 | 0.00 | 0.00 | 67 | 1016.1 |
| 20260507030008 | 39 | 360 | 0.0 | 0.0 | 0.00 | 0.00 | 0.00 | 68 | 1016.0 |
| 20260507025554 | 39 | 360 | 0.0 | 0.0 | 0.00 | 0.00 | 0.00 | 67 | 1016.1 |
| 20260507025011 | 39 | 360 | 0.0 | 0.0 | 0.00 | 0.00 | 0.00 | 64 | 1016.1 |
| 20260507024534 | 39 | 360 | 0.0 | 0.0 | 0.00 | 0.00 | 0.00 | 65 | 1016.1 |
| 20260507024008 | 39 | 360 | 0.0 | 0.0 | 0.00 | 0.00 | 0.00 | 64 | 1016.1 |
| 20260507023545 | 40 | 360 | 0.0 | 0.0 | 0.00 | 0.00 | 0.00 | 62 | 1016.0 |
| 20260507023012 | 40 | 360 | 0.0 | 0.0 | 0.00 | 0.00 | 0.00 | 61 | 1016.1 |
| 20260507022543 | 40 | 360 | 0.0 | 0.0 | 0.00 | 0.00 | 0.00 | 61 | 1016.0 |
| 20260507022009 | 40 | 360 | 0.0 | 0.0 | 0.00 | 0.00 | 0.00 | 61 | 1016.1 |
| 20260507021612 | 40 | 360 | 0.0 | 0.0 | 0.00 | 0.00 | 0.00 | 62 | 1016.1 |
| 20260507021013 | 40 | 360 | 0.0 | 0.0 | 0.00 | 0.00 | 0.00 | 61 | 1016.2 |
| 20260507020536 | 40 | 360 | 0.0 | 0.0 | 0.00 | 0.00 | 0.00 | 59 | 1016.1 |
| 20260507020011 | 41 | 360 | 0.0 | 0.0 | 0.00 | 0.00 | 0.00 | 59 | 1016.1 |
| 20260507015550 | 41 | 360 | 0.0 | 0.0 | 0.00 | 0.00 | 0.00 | 60 | 1016.0 |
| 20260507015016 | 41 | 360 | 0.0 | 0.0 | 0.00 | 0.00 | 0.00 | 58 | 1016.0 |
| 20260507014548 | 41 | 360 | 0.0 | 1.0 | 0.00 | 0.00 | 0.00 | 58 | 1016.0 |
| 20260507014018 | 41 | 360 | 0.0 | 1.0 | 0.00 | 0.00 | 0.00 | 58 | 1016.0 |
| 20260507013603 | 42 | 360 | 0.0 | 2.0 | 0.00 | 0.00 | 0.00 | 57 | 1016.0 |
| 20260507013016 | 42 | 360 | 0.0 | 2.0 | 0.00 | 0.00 | 0.00 | 58 | 1016.0 |
| 20260507012540 | 42 | 360 | 0.0 | 0.0 | 0.00 | 0.00 | 0.00 | 56 | 1016.0 |
| 20260507012015 | 42 | 360 | 0.0 | 2.0 | 0.00 | 0.00 | 0.00 | 56 | 1016.0 |
| 20260507011558 | 43 | 360 | 0.0 | 2.0 | 0.00 | 0.00 | 0.00 | 56 | 1016.1 |
| 20260507011032 | 43 | 360 | 0.0 | 3.0 | 0.00 | 0.00 | 0.00 | 56 | 1016.0 |
| 20260507010600 | 43 | 360 | 0.0 | 3.0 | 0.00 | 0.00 | 0.00 | 55 | 1016.0 |
| 20260507010050 | 43 | 360 | 0.0 | 6.0 | 0.00 | 0.00 | 0.00 | 54 | 1016.0 |